Wind_Speed
35 35 35 34 34 33 33 32 31 29 26 23 22 21 20 19 18 17 16 16 16 15 16 16 16 15 15 14 13 14 14 14 13 13 13 13 14 14 14 14 14 14 14 14
36 36 36 35 34 33 33 32 31 30 28 25 24 23 21 21 20 19 18 18 17 17 17 17 17 16 16 16 15 15 15 15 14 14 14 14 14 14 15 15 15 15 15 16
37 36 36 37 34 33 33 32 31 31 29 27 26 24 22 21 20 20 19 19 18 18 17 17 17 17 17 17 17 17 17 16 16 16 16 16 16 16 16 16 16 16 16 17
35 36 38 35 34 34 34 33 32 31 29 29 27 25 24 23 22 21 20 19 19 18 18 18 18 17 17 18 18 18 18 18 18 18 18 17 17 18 17 17 17 17 17 17
35 36 36 35 34 34 34 34 33 32 30 29 28 27 26 23 22 22 22 21 20 19 19 19 19 19 19 19 19 19 19 19 19 19 19 19 18 19 18 18 18 18 18 18
36 36 36 34 34 34 35 35 33 33 31 30 29 29 26 24 23 23 23 22 21 20 20 20 20 20 20 20 20 20 19 19 20 20 20 21 21 20 20 19 19 19 19 20
36 36 35 34 34 34 35 34 33 33 32 31 30 28 26 26 26 25 24 24 24 23 23 22 22 21 21 20 20 20 20 20 21 21 22 22 22 21 20 19 20 20 20 21
36 36 36 35 34 35 34 33 33 32 32 31 30 29 27 27 27 27 25 25 24 24 24 23 22 21 21 20 20 20 21 22 23 23 22 22 22 20 19 19 19 20 20 22
36 36 35 35 35 35 34 34 33 33 32 31 30 29 29 29 28 27 26 25 25 24 23 24 23 22 22 22 22 21 22 22 23 23 23 23 21 21 21 20 20 21 22 22
35 35 34 34 35 34 33 32 32 33 32 32 32 30 30 31 30 29 28 27 26 25 24 25 24 24 23 23 23 23 23 22 22 22 22 23 22 22 20 20 21 22 22 22
35 35 35 34 34 33 32 32 32 32 32 32 32 32 32 32 31 30 30 29 29 28 26 24 24 24 24 23 23 23 23 23 23 23 24 24 23 22 23 21 22 22 22 22
35 35 35 35 34 33 33 32 32 31 31 32 33 32 32 31 31 31 30 30 28 28 27 27 26 26 25 25 24 24 24 24 23 23 23 23 24 24 24 23 22 22 22 23
34 34 34 34 34 34 33 33 33 31 31 32 32 32 32 31 31 30 29 28 28 27 26 26 26 25 24 23 23 23 23 24 25 25 24 24 24 24 24 23 23 23 23 23
33 32 32 33 33 33 33 33 34 33 32 32 32 32 31 31 31 31 30 28 27 26 25 25 24 23 23 23 22 23 23 24 25 25 24 23 24 24 24 24 24 24 23 24
32 31 31 31 32 33 34 34 33 33 33 33 32 32 32 32 30 28 28 28 27 27 26 25 25 24 24 23 22 23 23 23 24 24 24 24 24 24 23 23 24 24 24 25
33 32 31 31 32 33 34 34 33 33 33 33 34 33 32 31 28 26 26 26 25 25 26 25 25 25 24 23 23 23 23 23 23 23 23 24 24 24 24 25 25 26 26 26
31 31 32 32 32 33 34 34 33 32 31 32 32 32 31 30 29 27 26 24 24 24 25 25 25 25 24 22 22 22 23 23 24 24 24 24 24 24 25 25 26 26 26 27
30 29 30 30 31 32 33 33 33 32 31 31 30 30 29 29 28 26 25 25 24 23 23 24 24 24 23 22 21 21 22 23 23 24 24 24 24 25 26 26 25 26 27 27
27 28 28 29 29 30 29 30 30 31 30 30 30 31 29 28 28 27 25 24 23 23 22 22 22 22 22 21 21 21 22 23 23 23 24 24 24 25 25 26 26 26 27 27
25 25 25 26 26 26 25 26 26 27 27 28 29 28 27 27 26 25 24 23 22 22 22 22 21 21 21 21 21 22 22 22 23 23 24 24 24 25 26 26 26 27 28 27
21 21 22 23 23 23 22 23 24 24 25 26 26 26 25 25 25 24 23 23 23 22 22 22 21 21 22 22 21 21 21 22 22 22 23 24 25 25 25 26 26 27 27 26
19 19 20 21 21 20 21 22 21 21 22 23 24 24 24 24 24 24 24 24 23 23 22 22 21 22 22 22 21 21 21 22 23 23 24 24 25 25 25 26 26 26 26 26
17 18 19 21 21 20 21 21 19 19 20 20 22 23 24 25 25 25 24 24 24 24 24 23 23 23 23 23 22 22 22 22 23 24 24 25 25 25 25 25 25 25 26 26
18 19 18 19 20 21 20 20 20 20 20 21 22 23 23 23 24 24 24 24 24 24 24 23 23 23 23 23 23 23 22 22 23 24 25 25 25 25 25 25 26 26 26 26
19 19 19 19 19 19 19 19 21 22 21 22 23 24 24 25 25 24 24 24 24 23 24 23 23 22 23 23 22 22 23 23 23 24 24 25 25 25 25 25 25 25 25 26
20 20 21 20 20 20 19 19 21 22 22 23 23 23 23 23 24 23 22 22 22 22 22 22 22 22 22 22 23 23 23 24 24 24 24 24 24 24 24 24 24 25 25 26
20 20 20 20 19 19 19 20 21 22 23 23 23 22 22 22 22 22 22 21 22 23 23 23 23 23 23 23 23 23 23 23 23 22 22 23 23 24 24 24 24 25 25 25
Wind_Direction
230 230 231 233 235 238 240 243 245 246 246 244 246 250 251 253 256 261 266 271 277 280 286 286 286 284 284 288 290 294 296 299 307 311 312 315 318 322 322 321 319 320 317 317
230 230 231 231 233 236 239 242 245 245 244 243 243 248 251 252 256 259 265 269 275 280 284 284 283 282 280 284 285 287 290 294 299 305 308 309 312 316 317 317 316 317 315 313
232 232 233 232 232 235 239 242 244 244 244 243 244 247 251 254 256 260 262 265 271 277 281 283 284 282 278 280 281 282 284 289 294 298 302 304 306 310 312 312 313 314 313 315
234 233 234 234 234 236 238 240 242 245 245 244 246 247 250 252 254 256 257 261 267 272 276 279 279 277 278 279 278 280 282 286 292 295 298 302 303 304 305 306 308 309 310 313
234 235 236 235 235 236 238 239 241 243 245 245 246 248 250 252 252 252 256 261 264 270 274 275 273 274 275 277 276 278 281 285 287 290 294 297 300 300 301 301 303 304 306 309
235 236 235 236 237 237 239 240 241 243 244 245 245 247 251 251 252 254 257 260 263 267 270 273 273 272 273 274 274 276 279 280 282 285 290 295 296 297 300 299 299 300 303 307
235 236 236 236 236 237 239 241 241 243 244 244 245 249 251 250 252 255 257 260 263 265 267 269 272 274 274 274 272 274 276 278 281 284 286 291 294 293 295 298 301 302 302 304
235 235 236 236 237 237 239 241 241 241 242 243 244 245 247 249 250 253 256 261 265 266 264 266 268 270 273 272 272 275 278 279 281 283 287 289 291 291 293 295 298 302 302 306
235 236 237 236 237 238 237 239 240 239 240 242 244 243 245 248 250 253 257 262 265 265 264 264 265 267 269 271 271 274 279 281 281 282 287 290 290 293 295 293 295 298 301 305
234 235 236 237 237 236 237 238 238 239 239 241 242 244 246 247 250 253 255 259 261 263 266 267 267 265 264 267 270 274 277 280 282 282 285 290 293 296 296 296 297 299 300 303
234 235 236 237 238 236 236 236 237 238 239 239 240 243 246 249 251 252 253 255 259 261 263 265 264 264 261 263 268 272 276 278 280 282 285 289 292 293 296 295 296 297 299 301
233 235 237 238 238 236 236 235 236 237 238 238 240 243 245 248 249 251 251 253 256 259 260 261 260 260 259 262 267 272 273 276 280 284 287 290 292 293 294 294 296 296 299 300
233 235 236 236 236 237 236 235 235 235 236 236 238 240 243 247 249 249 250 252 254 256 257 260 260 259 260 264 268 270 273 276 280 284 286 289 290 291 292 294 294 294 296 298
235 236 237 236 236 238 237 235 235 235 236 236 238 241 243 245 246 247 247 249 253 255 257 259 260 260 263 267 271 273 275 278 280 281 282 286 290 290 290 292 292 293 295 298
238 239 238 237 238 239 237 236 236 237 237 237 239 243 244 244 245 244 244 247 250 254 254 254 258 261 264 266 269 273 275 278 279 278 280 284 286 289 290 291 294 294 294 297
237 238 238 238 239 239 239 238 238 238 239 240 241 244 244 242 241 243 243 246 249 251 251 254 259 260 262 265 269 272 273 276 279 279 279 281 283 285 288 291 294 296 296 297
237 238 241 242 239 238 238 237 238 239 239 240 240 242 240 238 240 241 243 246 249 249 252 255 257 259 262 265 268 271 272 275 277 279 278 278 280 283 288 292 294 295 297 299
238 241 243 242 240 237 235 235 236 236 237 238 237 237 234 233 236 240 241 244 246 250 254 255 256 259 261 265 269 271 272 274 276 275 276 277 280 284 288 291 293 294 296 299
237 238 239 239 238 235 234 233 234 235 235 235 235 233 231 234 237 240 242 244 247 251 252 253 255 258 261 265 270 271 273 274 274 273 275 278 281 285 288 291 292 293 295 296
236 235 235 234 232 232 232 232 233 234 233 231 232 232 231 232 233 235 237 240 244 248 251 254 255 258 262 265 268 271 272 273 273 275 277 280 283 286 288 290 291 293 294 295
232 232 232 230 229 230 230 232 232 232 231 229 230 230 229 230 230 233 238 240 244 247 250 254 257 259 262 265 267 271 274 274 274 276 280 283 284 286 288 289 292 293 294 296
224 225 228 228 228 227 229 231 231 227 223 225 228 229 230 232 232 235 238 242 245 248 251 254 257 260 262 265 268 272 274 274 275 277 281 283 284 286 287 289 290 292 294 297
220 223 227 227 227 227 228 230 227 223 222 225 227 230 233 234 235 237 240 243 246 248 251 254 255 258 261 265 269 272 274 275 277 277 279 281 283 284 286 288 290 292 295 297
226 229 231 230 227 226 226 228 228 226 223 224 228 230 232 233 236 239 242 245 246 248 250 253 256 258 262 265 268 271 273 275 277 278 279 280 281 283 286 289 292 293 294 297
228 232 233 234 230 229 231 231 229 228 229 228 227 228 232 234 235 238 242 245 248 250 251 253 255 260 263 264 267 269 272 275 277 278 278 278 279 282 285 288 291 292 295 297
230 232 234 236 235 232 235 238 235 232 231 230 231 231 232 234 235 237 241 245 248 251 252 252 256 260 263 265 267 267 270 274 276 277 277 278 280 283 285 289 291 292 295 296
228 229 230 233 234 233 233 235 235 233 232 232 232 231 231 233 236 239 243 246 249 250 251 252 256 260 262 264 266 268 271 273 275 277 279 280 282 283 286 289 291 293 294 295
Height
5851 5855 5859 5863 5867 5870 5873 5877 5880 5884 5888 5892 5894 5896 5898 5900 5901 5902 5902 5902 5903 5903 5903 5902 5902 5901 5901 5900 5900 5899 5898 5897 5895 5894 5892 5890 5889 5887 5885 5883 5882 5880 5878 5876
5844 5848 5851 5856 5860 5864 5867 5871 5874 5878 5882 5886 5888 5890 5892 5894 5896 5897 5898 5898 5898 5898 5898 5898 5898 5897 5897 5897 5896 5895 5894 5893 5892 5891 5889 5888 5886 5885 5883 5881 5879 5877 5875 5873
5836 5841 5844 5848 5854 5857 5861 5864 5868 5871 5876 5879 5882 5885 5887 5889 5891 5892 5893 5893 5893 5894 5894 5894 5894 5893 5893 5893 5892 5891 5891 5890 5889 5888 5886 5885 5883 5882 5880 5878 5876 5874 5872 5870
5829 5833 5836 5845 5847 5850 5854 5858 5861 5865 5868 5872 5876 5879 5881 5883 5885 5886 5887 5888 5888 5889 5889 5889 5889 5888 5888 5888 5888 5887 5887 5886 5885 5884 5883 5881 5880 5879 5877 5875 5873 5871 5869 5867
5821 5825 5830 5836 5840 5843 5847 5851 5854 5858 5861 5865 5869 5871 5875 5877 5879 5880 5881 5882 5883 5884 5884 5884 5883 5883 5883 5883 5882 5882 5882 5882 5881 5880 5879 5878 5876 5875 5873 5872 5870 5868 5866 5864
5813 5817 5822 5830 5833 5836 5840 5843 5848 5851 5855 5858 5861 5865 5869 5871 5873 5874 5875 5877 5877 5878 5878 5878 5877 5878 5878 5877 5877 5877 5877 5877 5876 5875 5874 5873 5872 5871 5870 5868 5866 5864 5862 5860
5805 5810 5815 5821 5825 5829 5833 5838 5841 5844 5848 5851 5854 5859 5862 5864 5866 5868 5869 5870 5871 5871 5872 5872 5872 5872 5872 5872 5872 5872 5872 5872 5871 5870 5869 5869 5868 5866 5865 5863 5862 5860 5858 5856
5798 5802 5809 5813 5817 5821 5825 5829 5833 5837 5840 5844 5847 5851 5854 5857 5859 5861 5862 5863 5864 5864 5865 5865 5866 5866 5867 5867 5868 5868 5867 5867 5866 5865 5864 5864 5863 5862 5860 5859 5858 5856 5854 5852
5791 5797 5800 5804 5808 5812 5816 5821 5825 5829 5833 5836 5840 5843 5846 5849 5852 5853 5855 5856 5857 5858 5858 5859 5860 5861 5861 5862 5862 5862 5862 5861 5861 5860 5859 5858 5858 5857 5856 5854 5853 5851 5849 5847
5783 5788 5792 5796 5799 5804 5808 5812 5816 5820 5825 5829 5832 5836 5839 5841 5844 5846 5847 5849 5850 5850 5851 5852 5853 5854 5855 5856 5857 5857 5857 5856 5856 5855 5854 5854 5853 5852 5851 5849 5847 5846 5844 5842
5776 5780 5784 5788 5792 5796 5800 5804 5808 5812 5816 5820 5824 5827 5831 5833 5836 5837 5839 5841 5842 5843 5844 5845 5846 5847 5848 5850 5850 5851 5851 5851 5850 5850 5849 5849 5848 5847 5846 5844 5842 5841 5839 5837
5769 5773 5777 5781 5784 5788 5792 5796 5800 5805 5809 5812 5816 5819 5822 5825 5827 5829 5831 5833 5834 5836 5837 5838 5839 5840 5842 5843 5844 5845 5845 5845 5844 5844 5844 5843 5842 5841 5839 5838 5836 5835 5833 5831
5761 5765 5769 5773 5777 5780 5784 5788 5792 5796 5801 5804 5808 5811 5814 5816 5818 5820 5822 5824 5826 5828 5829 5830 5832 5833 5835 5836 5837 5838 5838 5838 5838 5837 5837 5836 5835 5834 5833 5832 5830 5828 5827 5825
5753 5757 5761 5765 5769 5773 5776 5780 5784 5788 5792 5796 5799 5802 5805 5807 5809 5811 5813 5815 5818 5820 5822 5824 5825 5826 5828 5829 5830 5830 5831 5831 5831 5830 5830 5830 5829 5828 5827 5825 5824 5822 5820 5818
5746 5750 5754 5757 5761 5765 5769 5773 5777 5780 5784 5788 5791 5794 5797 5799 5801 5803 5805 5808 5811 5814 5815 5817 5819 5820 5821 5822 5823 5824 5824 5824 5824 5824 5824 5823 5823 5821 5820 5819 5817 5816 5814 5812
5739 5743 5746 5750 5753 5757 5761 5765 5769 5773 5776 5779 5783 5786 5789 5791 5794 5796 5799 5802 5805 5807 5809 5811 5812 5814 5815 5815 5816 5816 5817 5817 5817 5817 5817 5817 5816 5815 5814 5812 5811 5809 5807 5805
5732 5735 5738 5741 5744 5748 5752 5756 5760 5764 5767 5771 5775 5778 5781 5784 5787 5790 5793 5796 5798 5800 5802 5804 5806 5807 5807 5808 5809 5809 5810 5810 5810 5810 5810 5810 5809 5808 5807 5805 5804 5802 5800 5798
5725 5728 5731 5733 5736 5740 5744 5748 5752 5756 5760 5763 5766 5770 5774 5778 5781 5784 5787 5789 5792 5794 5796 5797 5798 5799 5800 5801 5802 5802 5803 5803 5803 5803 5803 5803 5802 5801 5800 5798 5797 5796 5794 5792
5719 5722 5724 5727 5730 5734 5738 5742 5745 5749 5752 5755 5759 5763 5767 5771 5775 5778 5781 5783 5785 5787 5789 5791 5792 5793 5794 5795 5795 5796 5796 5796 5796 5796 5796 5796 5795 5794 5793 5791 5790 5788 5787 5784
5713 5716 5719 5721 5725 5729 5732 5736 5739 5742 5745 5749 5753 5757 5761 5764 5768 5771 5774 5777 5779 5781 5783 5785 5786 5787 5788 5788 5789 5789 5789 5789 5789 5789 5789 5788 5788 5787 5786 5784 5782 5781 5779 5777
5708 5711 5714 5717 5720 5723 5727 5730 5732 5735 5739 5743 5747 5751 5755 5758 5762 5765 5768 5770 5773 5775 5777 5779 5780 5780 5781 5782 5782 5783 5783 5783 5783 5783 5782 5782 5781 5780 5778 5777 5775 5774 5771 5769
5704 5706 5710 5712 5716 5718 5721 5725 5728 5730 5734 5738 5742 5746 5749 5753 5756 5759 5762 5764 5767 5768 5770 5772 5773 5774 5775 5776 5776 5776 5776 5776 5776 5776 5775 5774 5773 5772 5771 5769 5768 5766 5764 5762
5699 5703 5706 5708 5711 5714 5717 5720 5723 5726 5729 5732 5736 5740 5743 5747 5750 5753 5756 5758 5760 5762 5764 5766 5767 5768 5769 5769 5769 5769 5769 5769 5769 5769 5768 5767 5766 5765 5764 5762 5761 5759 5757 5755
5696 5698 5701 5704 5707 5710 5713 5716 5719 5722 5725 5728 5731 5734 5737 5741 5744 5747 5749 5752 5754 5756 5757 5759 5760 5761 5762 5762 5762 5762 5762 5762 5762 5761 5761 5760 5759 5758 5756 5755 5753 5752 5750 5748
5692 5695 5697 5700 5703 5706 5708 5710 5714 5717 5720 5723 5726 5729 5732 5735 5738 5741 5743 5745 5747 5749 5751 5752 5753 5754 5754 5755 5755 5755 5755 5755 5755 5754 5753 5752 5751 5750 5749 5747 5746 5744 5742 5740
5688 5690 5692 5695 5698 5701 5704 5706 5708 5712 5715 5718 5721 5723 5726 5729 5731 5734 5737 5739 5741 5742 5744 5745 5746 5747 5747 5747 5748 5748 5748 5748 5747 5746 5746 5745 5744 5743 5741 5740 5738 5737 5735 5733
5683 5686 5688 5690 5693 5696 5699 5701 5704 5707 5710 5712 5715 5718 5720 5723 5725 5728 5730 5732 5734 5735 5737 5738 5739 5739 5739 5740 5740 5740 5740 5740 5739 5739 5738 5737 5736 5735 5734 5733 5731 5730 5728 5726